Вернуться в каталог

SL-8 DEB

АктивенLEO
NORAD 21750·DEBRIS·🇷🇺 Russia

Запущен Feb 12, 1991 с Plesetsk Cosmodrome

Loading…

Ближайшие Пролёты (ближайшие 24 часа)

TLE

СвежийSource: Space-Track

Эпоха: Sep 14, 2026, 10:22 UTC

1 21750U 91009CQ  26257.43226558  .00000154  00000-0  14065-2 0  9999
2 21750  74.0717 241.4046 0135878 243.1455 274.3713 12.29715512588968

Отслеживайте SL-8 DEB в реальном времени с AllMySat

Download on the App Store